Tracking 27422 objects as of 31-May-2023
HD Live streaming from Space Station
objects crossing your sky now

STARLINK 1032

Track STARLINK 1032 now!
10-day predictions
STARLINK 1032 is classified as:


NORAD ID: 44737
Int'l Code: 2019-074AA
Perigee: 553.6 km
Apogee: 555.2 km
Inclination: 53.1 °
Period: 95.6 minutes
Semi major axis: 6925 km
RCS: Unknown
Launch date: November 11, 2019
Source: United States (US)
Launch site: AIR FORCE EASTERN TEST RANGE (AFETR)
Your satellite tracking list
Your tracking list is empty




NASA's NSSDC Master Catalog

Two Line Element Set (TLE):
1 44737U 19074AA  23150.12989836 -.00001152  00000-0 -58468-4 0  9999
2 44737  53.0542  81.1511 0001172 103.4598 256.6522 15.06385585195722
Source of the keplerian elements: AFSPC